Regional Weather Roundup
Issued by NWS

Home | Current Version | Previous Version | Graphics & Text | Print | Product List | Glossary On
Versions: 1 2 3 4 5 6 7 8 9 10 11 12 13 14 15 16 17 18 19 20 21 22 23 24 25 26 27 28 29 30 31 32 33 34 35 36 37 38 39 40 41 42 43 44 45 46 47 48 49 50
000
ASUS43 KDTX 262310
RWRMI
MICHIGAN HOURLY REGIONAL WEATHER ROUNDUP
NATIONAL WEATHER SERVICE DETROIT/PONTIAC MI
600 PM EST FRI DEC 26 2014

NOTE: "FAIR" INDICATES FEW OR NO CLOUDS BELOW 12,000 FEET WITH NO
SIGNIFICANT WEATHER AND/OR OBSTRUCTION TO VISIBILITY.

MIZ047>049-052>055-059>063-066>070-074>076-081>083-270000-
SOUTHEAST LOWER MICHIGAN

CITY           SKY/WX    TMP DP  RH WIND       PRES   REMARKS
ADRIAN         PTCLDY    42  38  85 SW9       30.10R
ALMA           CLOUDY    40  37  89 S5        30.05R
ANN ARBOR      PTCLDY    39  36  89 S3        30.09R
BAD AXE        MOCLDY    36  35  97 N3        30.07S
CARO           PTCLDY    35  33  92 CALM      30.05F
DETROIT CITY   CLEAR     43  35  73 S5        30.11R
DETROIT        MOCLDY    41  36  82 S8        30.11R
FLINT          CLEAR     42  34  73 S7        30.07R
GROSSE ILE     PTCLDY    39  36  87 S8        30.10R WCI  34
HILLSDALE      PTCLDY    42  38  86 S5        30.08R
HOWELL         PTCLDY    41  36  81 S8        30.07R

CITY           SKY/WX    TMP DP  RH WIND       PRES   REMARKS
JACKSON        PTCLDY    43  36  76 S6        30.07R
LAMBERTVILLE   MOCLDY    45  37  76 S6        30.11R
LANSING        CLEAR     43  35  73 S5        30.06R
LAPEER         FAIR      38  33  81 S3        30.08R
MASON          PTCLDY    39  34  82 CALM      30.06S
MONROE         MOCLDY    43  37  81 S6        30.10R
MT. CLEMENS    MOCLDY    36  36 100 S6        30.08R WCI  31
PONTIAC        PTCLDY    41  35  79 S6        30.08R
PORT HOPE        N/A     38  34  85 W3        30.06R
PORT HURON     CLEAR     37  36  93 S6        30.10R WCI  33
TRI CITIES     MOCLDY    41  37  86 CALM      30.06R
TROY           CLEAR     44  37  75 S5        30.11R
SAGINAW HB     PTCLDY    41  36  81 S3        30.05S
$$
MIZ043>046-050>051-056>058-064>065-071>073-077>080-270000-
SOUTHWEST LOWER MICHIGAN

CITY           SKY/WX    TMP DP  RH WIND       PRES   REMARKS
BATTLE CREEK   PTCLDY    44  36  73 S8        30.05S
BENTON HARBOR  PTCLDY    45  39  79 S7        30.03S
BIG RAPIDS     CLOUDY    40  37  88 S5        30.02R
COLDWATER      PTCLDY    42  36  80 MISG      30.07R
FREMONT        FAIR      39  36  87 CALM      30.03R
HOLLAND        PTCLDY    44  36  73 SW7       30.04R
GRAND RAPIDS   MOCLDY    40  33  76 CALM      30.04R
IONIA          FAIR      43  36  76 S5        30.04R
KALAMAZOO      PTCLDY    43  36  76 S7        30.05S
LUDINGTON      MOCLDY    41  36  81 S3        30.03R
MARSHALL       PTCLDY    42  36  79 S6        30.05S
MOUNT PLEASANT CLOUDY    38  35  87 CALM      30.04R
MUSKEGON       MOCLDY    41  36  82 S6        30.03R
SOUTH HAVEN    PTCLDY    45  37  75 CALM      30.03S
$$
MIZ016>042-270000-
NORTHERN LOWER MICHIGAN

CITY           SKY/WX    TMP DP  RH WIND       PRES   REMARKS
ALPENA         CLOUDY    38  33  82 S6        30.05R WCI  33
BEAVER ISLAND  LGT RAIN  38  37  98 CALM      30.01S
BELLAIRE       CLOUDY    40  35  81 CALM      30.02R
CADILLAC       CLOUDY    37  34  91 CALM      30.00R
CHARLEVOIX     CLOUDY    39  36  87 CALM      30.04R
FRANKFORT      CLOUDY    40  37  90 S5        30.01R
GAYLORD        CLOUDY    35  33  92 S3        30.00S
GRAYLING       CLOUDY    36  34  92 S5        30.02R WCI  32
HARBOR SPRINGS CLOUDY    37  34  89 CALM      30.01S
HOUGHTON LAKE  CLOUDY    36  33  89 S5        30.03R WCI  32
MANISTEE       CLOUDY    41  34  75 S5        30.03R
OSCODA         CLOUDY    38  34  86 S6        30.05S WCI  33
PELLSTON       CLOUDY    36  34  92 CALM      30.02R
ROGERS CITY    CLOUDY    37  36  93 S3        30.04S
TRAVERSE CITY  CLOUDY    41  35  79 CALM      30.01R
$$
MIZ007>008-015-270000-
EASTERN UPPER MICHIGAN

CITY           SKY/WX    TMP DP  RH WIND       PRES   REMARKS
KINROSS        CLOUDY    36  36 100 CALM      30.02R
MACKINAC ISLAN CLOUDY    37  37  97 CALM      30.02R
NEWBERRY       CLOUDY    32  32 100 N8        30.01S FOG     WCI  25
S. S. MARIE    FOG       34  33  96 CALM      30.02R VSB 3/4
MUNISING         N/A     37  32  82 N5        30.03R WCI  33
$$
MIZ004>006-011>014-085-270000-
CENTRAL UPPER MICHIGAN

CITY           SKY/WX    TMP DP  RH WIND       PRES   REMARKS
MANISTIQUE     CLOUDY    33  33 100 N6        30.01S FOG     WCI  28
ESCANABA       CLOUDY    34  30  86 CALM      30.02R
MENOMINEE      CLOUDY    36  32  87 E3        30.01R
SAWYER-GWINN   CLOUDY    32  30  93 N6        30.01R WCI  26
$$
MIZ001>003-009>011-084-270000-
WESTERN UPPER MICHIGAN

CITY           SKY/WX    TMP DP  RH WIND       PRES   REMARKS
IRON MOUNTAIN  CLOUDY    32  29  88 N5        30.00R WCI  27
HOUGHTON       CLOUDY    31  26  82 N3        30.02R
COPPER HARBOR    N/A     35  26  69 N7        30.04R WCI  29
IRONWOOD       CLOUDY    30  28  93 N6        30.02R WCI  24
$$

ABBREVIATIONS USED IN REMARKS
   TC - TEMPERATURE IN CELSIUS
  WCI - WIND CHILL INDEX
   HX - HEAT INDEX
  VSB - VISIBILITY



USA.gov is the U.S. government's official web portal to all federal, state and local government web resources and services.